Date String (YYYY-MM-DD hh:mm:ss) UTC,Instrument flags,Ambient pressure (hPa),Sample flow (lpm),Bypass flow (lpm),Sample temperature (°C),Ambient temperature (°C),ASC tube jacket temperature (°C),LED temperature (°C),Box temperature (°C),Sample RH (%),Span deviation,Mass concentration (μg/m³),Mass concentration (μg/m³),Mass concentration (μg/m³)
DateTimeUTC,F1_M11,P_M11,Q1_M11,Q2_M11,T1_M11,T2_M11,T3_M11,T4_M11,T5_M11,U1_M11,ZSPAN_M11,X0_M11,X2_M11,X1_M11
2022-10-06 19:00:00,,0834.2,5.01,0.00,29.8,28.2,00.0,38.5,31.6,19.1,0002.0,0018.08,0009.73,0009.15
2022-10-06 19:01:00,,0834.2,5.00,0.00,29.8,28.3,00.0,38.5,31.6,19.1,0002.0,0018.40,0009.81,0009.22
2022-10-06 19:02:00,,0834.1,4.99,0.00,29.8,28.5,00.0,38.5,31.6,19.3,0001.9,0019.00,0009.89,0009.25
2022-10-06 19:03:00,,0834.1,5.01,0.00,29.8,28.6,00.0,38.5,31.7,18.8,0001.7,0017.85,0009.91,0009.25
2022-10-06 19:04:00,,0834.1,4.99,0.00,29.8,28.6,00.0,38.5,31.7,18.6,0001.9,0017.51,0009.96,0009.26
2022-10-06 19:05:00,,0834.1,5.00,0.00,29.8,28.7,00.0,38.5,31.7,18.8,0001.8,0017.61,0010.00,0009.30
2022-10-06 19:06:00,,0834.1,4.99,0.00,29.9,28.8,00.0,38.5,31.8,18.6,0001.8,0017.75,0010.03,0009.34
2022-10-06 19:07:00,,0834.1,5.01,0.00,29.9,28.8,00.0,38.6,31.8,18.7,0002.1,0018.41,0010.09,0009.41
2022-10-06 19:08:00,,0834.1,4.99,0.00,29.9,28.9,00.0,38.6,31.8,18.9,0002.2,0019.00,0010.20,0009.46
2022-10-06 19:09:00,,0834.1,5.01,0.00,30.0,28.9,00.0,38.6,31.9,19.1,0002.2,0019.75,0010.23,0009.49
2022-10-06 19:10:00,,0834.0,4.99,0.00,30.0,29.0,00.0,38.6,31.9,18.9,0001.9,0020.28,0010.24,0009.52
2022-10-06 19:11:00,,0834.0,5.01,0.00,30.0,29.0,00.0,38.6,31.9,18.2,0001.9,0020.26,0010.24,0009.51
2022-10-06 19:12:00,,0834.0,4.99,0.00,30.0,29.1,00.0,38.7,32.0,17.7,0001.9,0020.17,0010.26,0009.51
2022-10-06 19:13:00,,0834.0,5.00,0.00,30.1,29.1,00.0,38.7,32.0,17.8,0002.0,0020.34,0010.24,0009.50
2022-10-06 19:14:00,,0834.0,5.02,0.00,30.1,29.1,00.0,38.7,32.0,17.5,0002.2,0021.08,0010.29,0009.55
2022-10-06 19:15:00,,0834.0,4.99,0.00,30.1,29.2,00.0,38.7,32.0,17.3,0002.0,0021.66,0010.26,0009.54
2022-10-06 19:16:00,,0834.0,5.01,0.00,30.2,28.4,00.0,38.7,32.0,17.1,0001.9,0022.53,0010.24,0009.47
2022-10-06 19:17:00,,0834.0,5.01,0.00,30.1,27.2,00.0,38.7,31.8,17.5,0002.2,0022.93,0010.16,0009.35
2022-10-06 19:18:00,,0834.0,4.99,0.00,30.0,27.2,00.0,38.7,31.8,17.6,0002.1,0022.41,0010.06,0009.23
2022-10-06 19:19:00,,0834.0,5.00,0.00,30.0,27.4,00.0,38.6,31.7,17.1,0002.0,0022.59,0010.00,0009.18
2022-10-06 19:20:00,,0834.0,5.00,0.00,29.9,27.6,00.0,38.6,31.6,17.1,0001.9,0023.38,0009.99,0009.17
2022-10-06 19:21:00,,0834.0,5.00,0.00,29.9,27.9,00.0,38.6,31.6,17.1,0002.2,0022.58,0009.95,0009.13
2022-10-06 19:22:00,,0834.0,5.01,0.00,29.9,28.1,00.0,38.6,31.7,17.5,0002.3,0022.34,0009.90,0009.10
2022-10-06 19:23:00,,0833.9,4.99,0.00,29.9,28.3,00.0,38.6,31.7,17.5,0002.1,0022.41,0009.85,0009.08
2022-10-06 19:24:00,,0833.9,5.01,0.00,29.9,28.4,00.0,38.6,31.8,17.3,0002.1,0021.62,0009.84,0009.09
2022-10-06 19:25:00,,0833.9,5.00,0.00,29.9,28.6,00.0,38.6,31.7,17.5,0002.0,0021.48,0009.82,0009.06
2022-10-06 19:26:00,,0833.9,4.99,0.00,30.0,28.7,00.0,38.6,31.8,17.5,0002.0,0021.00,0009.81,0009.05
2022-10-06 19:27:00,,0833.8,5.01,0.00,30.0,28.8,00.0,38.6,31.9,17.9,0001.9,0020.50,0009.80,0009.05
2022-10-06 19:28:00,,0833.9,4.98,0.00,30.0,28.9,00.0,38.6,31.9,17.6,0001.6,0019.89,0009.82,0009.06
2022-10-06 19:29:00,,0833.8,5.01,0.00,30.0,28.9,00.0,38.7,31.9,17.0,0001.5,0019.74,0009.82,0009.06
2022-10-06 19:30:00,,0833.8,4.99,0.00,30.0,29.0,00.0,38.7,31.9,16.6,0001.6,0019.03,0009.77,0009.03
2022-10-06 19:31:00,,0833.8,5.01,0.00,30.1,29.1,00.0,38.7,32.0,16.8,0001.7,0017.69,0009.70,0008.98
2022-10-06 19:32:00,,0833.8,4.99,0.00,30.1,29.1,00.0,38.7,32.0,16.7,0001.5,0017.61,0009.64,0008.91
2022-10-06 19:33:00,,0833.7,5.01,0.00,30.1,28.4,00.0,38.7,32.0,16.7,0001.5,0017.57,0009.59,0008.85
2022-10-06 19:34:00,,0833.7,5.01,0.00,30.1,27.1,00.0,38.7,31.7,16.5,0001.5,0017.30,0009.50,0008.80
2022-10-06 19:35:00,,0833.7,4.99,0.00,30.0,27.0,00.0,38.7,31.7,16.4,0001.4,0017.29,0009.44,0008.74
2022-10-06 19:36:00,,0833.7,5.01,0.00,29.9,27.1,00.0,38.6,31.6,16.7,0001.6,0017.00,0009.37,0008.67
2022-10-06 19:37:00,,0833.7,5.00,0.00,29.9,27.5,00.0,38.6,31.6,16.8,0001.7,0016.68,0009.32,0008.61
2022-10-06 19:38:00,,0833.7,5.00,0.00,29.9,27.8,00.0,38.6,31.6,16.7,0001.6,0016.02,0009.28,0008.60
2022-10-06 19:39:00,,0833.7,5.01,0.00,29.9,28.0,00.0,38.6,31.6,16.8,0001.6,0015.70,0009.22,0008.57
2022-10-06 19:40:00,,0833.7,5.01,0.00,29.9,28.2,00.0,38.6,31.7,16.9,0001.6,0015.83,0009.16,0008.52
2022-10-06 19:41:00,,0833.7,5.00,0.00,29.9,28.4,00.0,38.6,31.7,17.1,0001.7,0015.60,0009.07,0008.41
2022-10-06 19:42:00,,0833.7,4.99,0.00,29.9,28.5,00.0,38.6,31.7,17.0,0001.6,0015.43,0008.95,0008.32
2022-10-06 19:43:00,,0833.6,5.00,0.00,29.9,28.6,00.0,38.6,31.7,16.4,0001.8,0015.83,0008.90,0008.26
2022-10-06 19:44:00,,0833.6,4.99,0.00,29.9,28.7,00.0,38.6,31.7,16.5,0001.9,0016.08,0008.83,0008.23
2022-10-06 19:45:00,,0833.6,5.01,0.00,29.9,28.8,00.0,38.6,31.8,16.4,0002.1,0015.95,0008.83,0008.20
2022-10-06 19:46:00,,0833.6,4.99,0.00,30.0,28.9,00.0,38.6,31.9,16.3,0002.2,0015.39,0008.82,0008.18
2022-10-06 19:47:00,,0833.6,5.01,0.00,30.0,28.9,00.0,38.6,31.9,16.4,0002.0,0015.02,0008.78,0008.15
2022-10-06 19:48:00,,0833.7,4.99,0.00,30.0,29.0,00.0,38.7,31.9,16.6,0001.8,0015.03,0008.74,0008.12
2022-10-06 19:49:00,,0833.6,5.01,0.00,30.1,29.1,00.0,38.7,32.0,16.5,0002.0,0015.08,0008.71,0008.07
2022-10-06 19:50:00,,0833.6,4.99,0.00,30.1,29.0,00.0,38.7,32.0,17.2,0002.1,0015.53,0008.67,0008.02
2022-10-06 19:51:00,,0833.6,5.01,0.00,30.1,27.7,00.0,38.7,31.9,16.8,0002.1,0015.36,0008.63,0007.99
2022-10-06 19:52:00,,0833.6,4.99,0.00,30.0,26.9,00.0,38.7,31.7,16.4,0002.2,0015.29,0008.66,0008.05
2022-10-06 19:53:00,,0833.6,5.00,0.00,30.0,27.0,00.0,38.6,31.6,16.6,0001.8,0016.50,0008.74,0008.14
2022-10-06 19:54:00,,0833.6,5.00,0.00,29.9,27.3,00.0,38.6,31.5,16.6,0001.9,0016.47,0008.80,0008.19
2022-10-06 19:55:00,,0833.6,5.00,0.00,29.9,27.6,00.0,38.6,31.6,16.8,0001.7,0016.66,0008.83,0008.21
2022-10-06 19:56:00,,0833.6,4.99,0.00,29.8,27.8,00.0,38.6,31.6,17.1,0001.4,0017.02,0008.86,0008.19
2022-10-06 19:57:00,,0833.6,5.00,0.00,29.8,28.1,00.0,38.6,31.6,17.0,0001.3,0017.89,0008.83,0008.15
2022-10-06 19:58:00,,0833.6,5.01,0.00,29.9,28.3,00.0,38.6,31.7,16.8,0001.4,0018.76,0008.83,0008.19
2022-10-06 19:59:00,,0833.6,4.99,0.00,29.9,28.4,00.0,38.6,31.7,16.8,0001.8,0019.73,0008.87,0008.23
